Location: Newark
(50.2292°N, 18.1272°E)
Time: 20:46:21
(UTC+00:00)

X-37B - Visible Passes

Search period start: 27 September 2020 00:00
Search period end: 07 October 2020 00:00
Orbit: 386 x 387 km, 45.0° (Epoch: 18 September)

Date Brightness Start Highest point End Pass type
(mag) Time Alt. Az. Time Alt. Az. Time Alt. Az.
03 Oct 3.1 18:14:33 10° SSW 18:15:15 13° SSW 18:15:15 13° SSW visible
04 Oct 2.8 17:16:58 10° S 17:18:28 13° SSE 17:19:29 11° SE visible
04 Oct 3.7 18:51:41 10° SW 18:51:46 10° SW 18:51:46 10° SW visible
05 Oct 2.1 17:53:27 10° SW 17:55:54 23° S 17:55:54 23° S visible
06 Oct 2.5 16:55:26 10° SSW 16:57:41 18° SSE 16:59:55 10° ESE visible
06 Oct 2.8 18:30:54 10° WSW 18:32:15 20° SW 18:32:15 20° SW visible
